This demonstration page uses our WeatherBlox Daily Observations layout. Learn more.

Left ArrowRight Arrow

53.62937, 11.41316

Hourly Observations for December 25, 2021

Temp ( °F °C ) Dew Point ( °F °C ) Humidity (%) Winds ( mph kmh ) Pressure ( in mb ) Visibility ( mi km ) Precip ( " mm )
12:20 am 00:20 Mostly Clear 14 -10 12 -11 92 92 VRB 1 2 29.83 1010 30 48 N/A
12:50 am 00:50 Mostly Clear 16 -9 14 -10 93 93 VRB 2 4 29.83 1010 30 48 N/A
1:50 am 01:50 Mostly Clear 16 -9 12 -11 86 86 WSW 2 4 29.83 1010 30 48 N/A
2:20 am 02:20 Mostly Clear 16 -9 12 -11 86 86 WSW 3 6 29.86 1011 30 48 N/A
3:20 am 03:20 Mostly Clear 14 -10 12 -11 92 92 VRB 2 4 29.86 1011 30 48 N/A
3:50 am 03:50 Mostly Clear 12 -11 9 -13 85 85 WSW 2 4 29.86 1011 30 48 N/A
4:20 am 04:20 Mostly Clear 12 -11 10 -12 92 92 WSW 2 4 29.89 1012 30 48 N/A
4:50 am 04:50 Mostly Clear 12 -11 10 -12 92 92 VRB 2 4 29.89 1012 30 48 N/A
5:20 am 05:20 Mostly Clear 12 -11 9 -13 85 85 VRB 2 4 29.89 1012 30 48 N/A
5:50 am 05:50 Mostly Clear 10 -12 9 -13 92 92 VRB 1 2 29.89 1012 30 48 N/A
6:20 am 06:20 Mostly Clear 10 -12 9 -13 92 92 VRB 2 4 29.89 1012 30 48 N/A
6:50 am 06:50 Mostly Clear 12 -11 9 -13 85 85 SW 3 6 29.89 1012 30 48 N/A
7:20 am 07:20 Mostly Clear 12 -11 9 -13 85 85 SW 2 4 29.92 1013 30 48 N/A
7:50 am 07:50 Mostly Clear 10 -12 9 -13 92 92 Calm 29.92 1013 30 48 N/A
8:20 am 08:20 Mostly Clear 10 -12 9 -13 92 92 S 1 2 29.92 1013 30 48 N/A
8:50 am 08:50 Mostly Sunny 10 -12 9 -13 92 92 Calm 29.92 1013 30 48 N/A
9:20 am 09:20 Mostly Sunny 10 -12 7 -14 85 85 Calm 29.92 1013 30 48 N/A
9:50 am 09:50 Mostly Sunny 14 -10 10 -12 85 85 VRB 1 2 29.92 1013 30 48 N/A
10:20 am 10:20 Mostly Sunny 16 -9 12 -11 86 86 Calm 29.92 1013 30 48 N/A
10:50 am 10:50 Mostly Sunny 19 -7 16 -9 86 86 VRB 1 2 29.95 1014 30 48 N/A
11:20 am 11:20 Mostly Sunny 21 -6 18 -8 86 86 VRB 2 4 29.95 1014 30 48 N/A
11:50 am 11:50 Mostly Sunny 23 -5 18 -8 80 80 WSW 3 6 29.95 1014 30 48 N/A
12:20 pm 12:20 Mostly Sunny 25 -4 19 -7 80 80 SW 3 6 29.95 1014 30 48 N/A
12:50 pm 12:50 Mostly Sunny 27 -3 19 -7 74 74 VRB 2 4 29.92 1013 30 48 N/A
1:20 pm 13:20 Mostly Sunny 28 -2 21 -6 74 74 VRB 2 4 29.92 1013 30 48 N/A
1:50 pm 13:50 Mostly Sunny 28 -2 19 -7 69 69 VRB 2 4 29.92 1013 30 48 N/A
2:20 pm 14:20 Mostly Sunny 28 -2 19 -7 69 69 SW 3 6 29.95 1014 30 48 N/A
2:50 pm 14:50 Mostly Sunny 27 -3 19 -7 74 74 WSW 3 6 29.95 1014 30 48 N/A
3:20 pm 15:20 Mostly Sunny 27 -3 19 -7 74 74 WSW 3 6 29.95 1014 30 48 N/A
3:50 pm 15:50 Mostly Sunny 25 -4 19 -7 80 80 VRB 2 4 29.95 1014 30 48 N/A
4:20 pm 16:20 Mostly Clear 25 -4 19 -7 80 80 VRB 2 4 29.95 1014 30 48 N/A
4:50 pm 16:50 Mostly Clear 23 -5 18 -8 80 80 VRB 2 4 29.95 1014 30 48 N/A
5:20 pm 17:20 Mostly Clear 21 -6 18 -8 86 86 Calm 29.95 1014 30 48 N/A
5:50 pm 17:50 Mostly Clear 19 -7 16 -9 86 86 VRB 2 4 29.95 1014 30 48 N/A
6:20 pm 18:20 Mostly Clear 18 -8 16 -9 93 93 VRB 1 2 29.95 1014 30 48 N/A
6:50 pm 18:50 Mostly Clear 18 -8 16 -9 93 93 VRB 2 4 29.95 1014 30 48 N/A
7:20 pm 19:20 Mostly Clear 18 -8 16 -9 93 93 VRB 1 2 29.95 1014 30 48 N/A
7:50 pm 19:50 Mostly Clear 18 -8 16 -9 93 93 SSW 2 4 29.98 1015 30 48 N/A
8:20 pm 20:20 Mostly Clear 16 -9 14 -10 93 93 VRB 2 4 29.95 1014 30 48 N/A
8:50 pm 20:50 Mostly Clear 16 -9 14 -10 93 93 VRB 2 4 29.95 1014 1 1 N/A
9:20 pm 21:20 Mostly Clear 14 -10 12 -11 92 92 VRB 2 4 29.98 1015 30 48 N/A
9:50 pm 21:50 Mostly Clear 14 -10 12 -11 92 92 VRB 1 2 29.98 1015 30 48 N/A
10:20 pm 22:20 Mostly Clear 16 -9 16 -9 100 100 S 3 6 29.98 1015 5 8 N/A
10:50 pm 22:50 Mostly Clear 14 -10 12 -11 92 92 Calm 29.95 1014 30 48 N/A
11:20 pm 23:20 Mostly Clear 14 -10 12 -11 92 92 VRB 1 2 29.95 1014 30 48 N/A
11:50 pm 23:50 Mostly Clear 14 -10 12 -11 92 92 VRB 1 2 29.95 1014 1 2 N/A

Powered by AerisWeather